Location: The Saddle
(36.8333°N, 80.3417°W)
Time: 09:52:35
(UTC-04:00)

deb Explorer IX - All Passes

Search period start: 18 September 2024 00:00
Search period end: 28 September 2024 00:00
Orbit: 504 x 847 km, 38.7° (Epoch: 17 September)

Date Brightness Start Highest point End Pass type
(mag) Time Alt. Az. Time Alt. Az. Time Alt. Az.
18 Sep - 00:05:21 10° WNW 00:11:12 75° SSW 00:16:41 10° ESE visible
18 Sep - 01:49:56 10° W 01:54:33 26° SW 01:58:52 10° SSE night (unlit)
18 Sep - 17:46:50 10° S 17:50:58 22° SE 17:55:16 10° E daylight
18 Sep - 19:28:34 10° WSW 19:34:13 65° SSE 19:40:04 10° ENE daylight
18 Sep - 21:12:18 10° W 21:18:10 75° N 21:24:02 10° E visible
18 Sep - 22:56:22 10° WNW 23:02:19 85° NNE 23:08:00 10° ESE visible
19 Sep - 00:40:31 10° W 00:46:00 44° SSW 00:51:08 10° SE night (unlit)
19 Sep - 02:27:18 10° WSW 02:28:50 11° SW 02:30:22 10° SSW night (unlit)
19 Sep - 16:41:03 10° SSE 16:42:28 11° SE 16:43:52 10° ESE daylight
19 Sep - 18:20:06 10° SW 18:25:18 43° SSE 18:30:48 10° E daylight
19 Sep - 20:03:13 10° WSW 20:08:58 86° NNW 20:14:55 10° ENE visible
19 Sep - 21:47:12 10° W 21:53:06 75° N 21:58:55 10° E visible
19 Sep - 23:31:12 10° WNW 23:37:02 67° SSW 23:42:36 10° ESE visible
20 Sep - 01:15:58 10° W 01:20:16 22° SW 01:24:22 10° SSE night (unlit)
20 Sep - 17:12:00 10° SSW 17:16:21 26° SE 17:20:58 10° E daylight
20 Sep - 18:54:06 10° WSW 18:59:38 74° SSE 19:05:30 10° ENE daylight
20 Sep - 20:37:50 10° W 20:43:37 73° N 20:49:30 10° E visible
20 Sep - 22:21:48 10° WNW 22:27:42 89° SSW 22:33:29 10° ESE visible
21 Sep - 00:05:56 10° W 00:11:16 37° SSW 00:16:23 10° SE visible
21 Sep - 16:04:54 10° SSE 16:07:22 13° SE 16:09:55 10° ESE daylight
21 Sep - 17:45:05 10° SW 17:50:14 49° SSE 17:55:47 10° E daylight
21 Sep - 19:28:19 10° W 19:33:56 81° N 19:39:51 10° ENE daylight
21 Sep - 21:12:12 10° W 21:18:01 77° N 21:23:54 10° E visible
21 Sep - 22:56:06 10° WNW 23:01:52 59° SSW 23:07:29 10° SE visible
22 Sep - 00:41:07 10° W 00:44:59 18° SW 00:48:44 10° S night (unlit)
22 Sep - 16:36:22 10° SSW 16:40:48 30° SSE 16:45:35 10° E daylight
22 Sep - 18:18:43 10° WSW 18:24:07 81° SSE 18:29:56 10° ENE daylight
22 Sep - 20:02:25 10° W 20:08:05 73° N 20:13:58 10° E visible
22 Sep - 21:46:14 10° WNW 21:52:05 82° SSW 21:57:55 10° ESE visible
22 Sep - 23:30:24 10° W 23:35:33 32° SSW 23:40:32 10° SSE visible
23 Sep - 15:28:22 10° S 15:31:20 16° SE 15:34:27 10° ESE daylight
23 Sep - 17:09:11 10° SW 17:14:14 56° SSE 17:19:45 10° ENE daylight
23 Sep - 18:52:28 10° W 18:57:56 77° N 19:03:46 10° E daylight
23 Sep - 20:36:15 10° WNW 20:41:58 81° N 20:47:51 10° E visible
23 Sep - 22:20:04 10° W 22:25:42 51° SSW 22:31:17 10° SE visible
24 Sep - 00:05:27 10° WSW 00:08:43 15° SW 00:11:56 10° S night (unlit)
24 Sep - 15:59:53 10° SSW 16:04:18 34° SSE 16:09:09 10° E daylight
24 Sep - 17:42:25 10° WSW 17:47:39 88° SSE 17:53:21 10° ENE daylight
24 Sep - 19:26:04 10° W 19:31:35 73° N 19:37:25 10° E daylight
24 Sep - 21:09:45 10° WNW 21:15:29 75° SSW 21:21:19 10° ESE visible
24 Sep - 22:53:58 10° W 22:58:50 27° SW 23:03:37 10° SSE visible
25 Sep - 14:51:09 10° S 14:54:23 18° SE 14:57:49 10° E daylight
25 Sep - 16:32:23 10° WSW 16:37:17 63° SSE 16:42:42 10° ENE daylight
25 Sep - 18:15:42 10° W 18:20:59 74° N 18:26:42 10° E daylight
25 Sep - 19:59:21 10° WNW 20:04:56 85° NNE 20:10:47 10° ESE visible
25 Sep - 21:43:06 10° W 21:48:33 45° SSW 21:54:03 10° SE visible
25 Sep - 23:29:06 10° WSW 23:31:28 13° SW 23:33:51 10° SSW visible
26 Sep - 15:22:31 10° SW 15:26:53 38° SSE 15:31:42 10° E daylight
26 Sep - 17:05:12 10° WSW 17:10:15 86° N 17:15:48 10° ENE daylight
26 Sep - 18:48:46 10° W 18:54:06 74° N 18:59:52 10° E daylight
26 Sep - 20:32:20 10° WNW 20:37:54 67° SSW 20:43:41 10° ESE visible
26 Sep - 22:16:40 10° W 22:21:08 23° SW 22:25:38 10° SSE visible
27 Sep - 14:13:07 10° SSW 14:16:29 21° SE 14:20:05 10° E daylight
27 Sep - 15:54:41 10° WSW 15:59:25 70° SSE 16:04:41 10° ENE daylight
27 Sep - 17:37:59 10° W 17:43:05 72° N 17:48:39 10° E daylight
27 Sep - 19:21:30 10° WNW 19:26:56 90° SSW 19:32:42 10° ESE daylight
27 Sep - 21:05:13 10° W 21:10:25 39° SSW 21:15:46 10° SE visible
27 Sep - 22:52:58 10° SW 22:53:16 10° SW 22:53:35 10° SW visible
